RDS153 KLAX-KLAS

Flight info

Callsign RDS153
Flight time 0h 50m
Altitude 27000
Route BOBZY5 TNSLY DCT LEAVI OZZZI2
Aircraft MD88/M-VGDW/C

Departure

Time 2026-05-06 03:29
Airport Los Angeles International Airport (KLAX)

Arrival

Time 2026-05-06 04:20
Airport Harry Reid International Airport (KLAS)
Time Latitude Longitude Altitude Speed Heading
2026-05-06 03:01 33.93387 -118.39059 122 ft 0 kts 180°
2026-05-06 03:20 33.93433 -118.39059 122 ft 4 kts 180°
2026-05-06 03:20 33.93460 -118.39059 122 ft 4 kts 180°
2026-05-06 03:20 33.93486 -118.39060 123 ft 4 kts 169°
2026-05-06 03:21 33.93510 -118.39070 124 ft 4 kts 145°
2026-05-06 03:21 33.93526 -118.39091 123 ft 4 kts 108°
2026-05-06 03:21 33.93528 -118.39109 123 ft 1 kts 83°
2026-05-06 03:24 33.93529 -118.39103 123 ft 1 kts 83°
2026-05-06 03:24 33.93530 -118.39092 125 ft 2 kts 83°
2026-05-06 03:24 33.93534 -118.39052 124 ft 9 kts 83°
2026-05-06 03:25 33.93542 -118.38975 125 ft 10 kts 83°
2026-05-06 03:25 33.93551 -118.38894 123 ft 10 kts 83°
2026-05-06 03:25 33.93560 -118.38809 126 ft 10 kts 83°
2026-05-06 03:25 33.93568 -118.38709 126 ft 15 kts 84°
2026-05-06 03:26 33.93581 -118.38587 124 ft 15 kts 82°
2026-05-06 03:26 33.93595 -118.38460 122 ft 16 kts 82°
2026-05-06 03:26 33.93608 -118.38332 122 ft 10 kts 83°
2026-05-06 03:26 33.93624 -118.38290 122 ft 0 kts 44°
2026-05-06 03:27 33.93625 -118.38289 123 ft 0 kts 41°
2026-05-06 03:27 33.93627 -118.38288 124 ft 1 kts 38°
2026-05-06 03:27 33.93631 -118.38285 125 ft 1 kts 30°
2026-05-06 03:27 33.93670 -118.38281 123 ft 10 kts 356°
2026-05-06 03:28 33.93783 -118.38297 124 ft 20 kts 353°
2026-05-06 03:28 33.93876 -118.38311 125 ft 20 kts 353°
2026-05-06 03:28 33.93956 -118.38366 122 ft 2 kts 262°
2026-05-06 03:28 33.93950 -118.38394 124 ft 4 kts 257°
2026-05-06 03:29 33.93916 -118.38706 126 ft 73 kts 264°
2026-05-06 03:29 33.93825 -118.39578 122 ft 134 kts 263°
2026-05-06 03:29 33.93690 -118.40897 175 ft 180 kts 263°
2026-05-06 03:29 33.93535 -118.42409 948 ft 175 kts 262°
2026-05-06 03:30 33.93330 -118.43800 1922 ft 169 kts 258°
2026-05-06 03:30 33.93068 -118.45218 2546 ft 178 kts 257°
2026-05-06 03:30 33.92736 -118.46689 3166 ft 188 kts 250°
2026-05-06 03:30 33.92244 -118.48194 3743 ft 199 kts 248°
2026-05-06 03:31 33.91718 -118.49696 4639 ft 192 kts 247°
2026-05-06 03:31 33.91206 -118.51163 5428 ft 189 kts 249°
2026-05-06 03:31 33.90689 -118.52627 6111 ft 190 kts 250°
2026-05-06 03:31 33.89969 -118.53946 6644 ft 202 kts 214°
2026-05-06 03:32 33.88538 -118.54328 6773 ft 229 kts 163°
2026-05-06 03:32 33.87256 -118.53355 7693 ft 202 kts 125°
2026-05-06 03:32 33.86681 -118.51931 8445 ft 197 kts 94°
2026-05-06 03:32 33.86836 -118.50174 8447 ft 220 kts 69°
2026-05-06 03:33 33.87431 -118.48704 9792 ft 172 kts 47°
2026-05-06 03:33 33.88319 -118.47730 10235 ft 179 kts 31°
2026-05-06 03:33 33.89354 -118.46924 10670 ft 174 kts 33°
2026-05-06 03:33 33.90370 -118.46089 10974 ft 179 kts 34°
2026-05-06 03:34 33.91358 -118.45259 11260 ft 185 kts 34°
2026-05-06 03:34 33.92489 -118.44295 11234 ft 213 kts 36°
2026-05-06 03:34 33.93571 -118.42964 11334 ft 233 kts 51°
2026-05-06 03:34 33.94553 -118.41335 11533 ft 248 kts 53°
2026-05-06 03:35 33.95572 -118.39584 11743 ft 262 kts 54°
2026-05-06 03:35 33.96636 -118.37734 11965 ft 275 kts 54°
2026-05-06 03:35 33.97736 -118.35780 12180 ft 288 kts 55°
2026-05-06 03:35 33.98880 -118.33722 12354 ft 304 kts 55°
2026-05-06 03:36 34.00082 -118.31551 12523 ft 319 kts 55°
2026-05-06 03:36 34.01348 -118.29274 12684 ft 335 kts 54°
2026-05-06 03:36 34.02682 -118.26889 12831 ft 351 kts 55°
2026-05-06 03:36 34.04076 -118.24400 13007 ft 365 kts 55°
2026-05-06 03:37 34.05509 -118.21841 13504 ft 370 kts 55°
2026-05-06 03:37 34.06954 -118.19262 14113 ft 372 kts 55°
2026-05-06 03:37 34.08403 -118.16680 14698 ft 373 kts 55°
2026-05-06 03:37 34.09868 -118.14073 15265 ft 375 kts 55°
2026-05-06 03:38 34.11238 -118.11383 15773 ft 379 kts 64°
2026-05-06 03:38 34.12475 -118.08582 16279 ft 379 kts 53°
2026-05-06 03:38 34.14101 -118.06062 16798 ft 382 kts 49°
2026-05-06 03:38 34.15817 -118.03587 17253 ft 386 kts 49°
2026-05-06 03:39 34.17489 -118.01039 17806 ft 389 kts 52°
2026-05-06 03:39 34.19030 -117.98340 18362 ft 391 kts 56°
2026-05-06 03:39 34.20501 -117.95559 18839 ft 393 kts 57°
2026-05-06 03:39 34.21966 -117.92767 19378 ft 394 kts 56°
2026-05-06 03:40 34.23451 -117.89981 19892 ft 395 kts 56°
2026-05-06 03:40 34.24964 -117.87200 20412 ft 396 kts 56°
2026-05-06 03:40 34.26498 -117.84426 20932 ft 397 kts 55°
2026-05-06 03:40 34.28046 -117.81652 21398 ft 399 kts 55°
2026-05-06 03:41 34.29610 -117.78868 21886 ft 401 kts 55°
2026-05-06 03:41 34.31177 -117.76077 22389 ft 403 kts 55°
2026-05-06 03:41 34.32759 -117.73267 22858 ft 405 kts 55°
2026-05-06 03:41 34.34346 -117.70446 23296 ft 407 kts 56°
2026-05-06 03:42 34.35950 -117.67623 23749 ft 408 kts 55°
2026-05-06 03:42 34.37596 -117.64825 24222 ft 407 kts 54°
2026-05-06 03:42 34.39258 -117.62053 24710 ft 406 kts 54°
2026-05-06 03:42 34.40900 -117.59326 25145 ft 407 kts 54°
2026-05-06 03:43 34.42572 -117.56555 25572 ft 407 kts 54°
2026-05-06 03:43 34.44240 -117.53780 25997 ft 407 kts 54°
2026-05-06 03:43 34.45895 -117.51015 26621 ft 403 kts 54°
2026-05-06 03:43 34.47527 -117.48277 27256 ft 398 kts 54°
2026-05-06 03:44 34.49132 -117.45575 27979 ft 391 kts 54°
2026-05-06 03:44 34.50710 -117.42916 28596 ft 388 kts 54°
2026-05-06 03:44 34.52289 -117.40254 28862 ft 389 kts 54°
2026-05-06 03:44 34.53863 -117.37602 28987 ft 386 kts 54°
2026-05-06 03:45 34.56954 -117.32392 29047 ft 375 kts 54°
2026-05-06 03:45 34.59978 -117.27296 29064 ft 370 kts 54°
2026-05-06 03:46 34.62982 -117.22195 29061 ft 373 kts 54°
2026-05-06 03:46 34.66006 -117.17048 28977 ft 375 kts 54°
2026-05-06 03:47 34.69038 -117.11892 28967 ft 374 kts 54°
2026-05-06 03:47 34.72059 -117.06763 28967 ft 373 kts 54°
2026-05-06 03:48 34.75078 -117.01636 28959 ft 373 kts 54°
2026-05-06 03:48 34.78097 -116.96500 28962 ft 373 kts 54°
2026-05-06 03:49 34.81116 -116.91358 28973 ft 373 kts 54°
2026-05-06 03:49 34.84133 -116.86215 28974 ft 373 kts 54°
2026-05-06 03:50 34.87151 -116.81049 28969 ft 375 kts 54°
2026-05-06 03:50 34.90182 -116.75861 28971 ft 376 kts 54°
2026-05-06 03:51 34.93203 -116.70657 28966 ft 376 kts 55°
2026-05-06 03:51 34.96115 -116.65456 28957 ft 374 kts 56°
2026-05-06 03:52 34.99045 -116.60214 28939 ft 374 kts 56°
2026-05-06 03:52 35.01993 -116.54975 28925 ft 375 kts 55°
2026-05-06 03:53 35.04956 -116.49726 28904 ft 376 kts 55°
2026-05-06 03:53 35.07927 -116.44461 28889 ft 377 kts 56°
2026-05-06 03:54 35.09414 -116.41820 28695 ft 379 kts 56°
2026-05-06 03:54 35.11001 -116.39227 28209 ft 379 kts 50°
2026-05-06 03:54 35.14538 -116.34626 28036 ft 368 kts 47°
2026-05-06 03:55 35.16295 -116.32435 27900 ft 354 kts 47°
2026-05-06 03:55 35.17983 -116.30323 27638 ft 342 kts 47°
2026-05-06 03:55 35.19607 -116.28263 27312 ft 331 kts 48°
2026-05-06 03:55 35.21150 -116.26285 26983 ft 321 kts 47°
2026-05-06 03:56 35.22702 -116.24306 26630 ft 315 kts 47°
2026-05-06 03:56 35.24160 -116.22384 26281 ft 312 kts 49°
2026-05-06 03:56 35.25607 -116.20400 25929 ft 314 kts 49°
2026-05-06 03:56 35.27053 -116.18388 25624 ft 313 kts 49°
2026-05-06 03:57 35.28487 -116.16390 25370 ft 315 kts 49°
2026-05-06 03:57 35.29939 -116.14374 25128 ft 314 kts 49°
2026-05-06 03:57 35.31391 -116.12365 24831 ft 315 kts 49°
2026-05-06 03:57 35.32847 -116.10356 24470 ft 318 kts 49°
2026-05-06 03:58 35.34341 -116.08295 23732 ft 327 kts 49°
2026-05-06 03:58 35.35866 -116.06195 22955 ft 332 kts 49°
2026-05-06 03:58 35.37403 -116.04077 22258 ft 333 kts 49°
2026-05-06 03:58 35.38927 -116.01980 21644 ft 326 kts 48°
2026-05-06 03:59 35.40414 -115.99930 21083 ft 318 kts 48°
2026-05-06 03:59 35.41867 -115.97928 20523 ft 311 kts 48°
2026-05-06 03:59 35.43292 -115.95965 19941 ft 306 kts 48°
2026-05-06 03:59 35.44692 -115.94033 19368 ft 301 kts 47°
2026-05-06 04:00 35.46073 -115.92130 18845 ft 296 kts 47°
2026-05-06 04:00 35.47432 -115.90257 18341 ft 292 kts 47°
2026-05-06 04:00 35.48773 -115.88407 17792 ft 288 kts 47°
2026-05-06 04:00 35.50096 -115.86583 17231 ft 284 kts 47°
2026-05-06 04:01 35.51400 -115.84784 16691 ft 281 kts 47°
2026-05-06 04:01 35.52705 -115.82983 16160 ft 286 kts 47°
2026-05-06 04:01 35.54037 -115.81146 16039 ft 291 kts 47°
2026-05-06 04:01 35.55400 -115.79263 15963 ft 296 kts 47°
2026-05-06 04:02 35.56770 -115.77370 15881 ft 297 kts 47°
2026-05-06 04:02 35.58143 -115.75464 15810 ft 298 kts 47°
2026-05-06 04:02 35.59523 -115.73547 15521 ft 302 kts 47°
2026-05-06 04:02 35.60903 -115.71657 15434 ft 293 kts 47°
2026-05-06 04:03 35.62279 -115.69799 15359 ft 294 kts 46°
2026-05-06 04:03 35.63662 -115.67942 15285 ft 294 kts 46°
2026-05-06 04:03 35.65043 -115.66088 15216 ft 295 kts 46°
2026-05-06 04:03 35.66424 -115.64235 15133 ft 294 kts 47°
2026-05-06 04:04 35.67802 -115.62383 15084 ft 292 kts 46°
2026-05-06 04:04 35.69173 -115.60534 15012 ft 293 kts 46°
2026-05-06 04:04 35.70541 -115.58683 14933 ft 293 kts 47°
2026-05-06 04:04 35.71909 -115.56832 14858 ft 291 kts 47°
2026-05-06 04:05 35.73366 -115.55107 14785 ft 291 kts 34°
2026-05-06 04:05 35.75090 -115.53801 14717 ft 291 kts 29°
2026-05-06 04:05 35.76865 -115.52596 14638 ft 292 kts 28°
2026-05-06 04:05 35.78645 -115.51400 14575 ft 291 kts 29°
2026-05-06 04:06 35.80419 -115.50211 14495 ft 290 kts 29°
2026-05-06 04:06 35.82185 -115.49019 14430 ft 290 kts 29°
2026-05-06 04:06 35.83946 -115.47820 14353 ft 289 kts 29°
2026-05-06 04:06 35.85697 -115.46626 14274 ft 288 kts 29°
2026-05-06 04:07 35.87449 -115.45412 14205 ft 288 kts 30°
2026-05-06 04:07 35.89190 -115.44191 14126 ft 287 kts 30°
2026-05-06 04:07 35.90920 -115.42970 14058 ft 286 kts 30°
2026-05-06 04:07 35.92649 -115.41755 13987 ft 286 kts 30°
2026-05-06 04:08 35.94375 -115.40530 13905 ft 285 kts 30°
2026-05-06 04:08 35.96101 -115.39317 13702 ft 287 kts 30°
2026-05-06 04:08 35.97846 -115.38099 13226 ft 289 kts 30°
2026-05-06 04:08 35.99585 -115.36870 12791 ft 286 kts 33°
2026-05-06 04:09 36.00999 -115.35177 12346 ft 286 kts 59°
2026-05-06 04:09 36.01589 -115.32841 11914 ft 290 kts 84°
2026-05-06 04:09 36.01561 -115.30343 11450 ft 292 kts 90°
2026-05-06 04:09 36.01436 -115.27843 11033 ft 291 kts 91°
2026-05-06 04:10 36.01283 -115.25365 10754 ft 287 kts 92°
2026-05-06 04:10 36.01111 -115.22935 10496 ft 281 kts 92°
2026-05-06 04:10 36.00938 -115.20567 10380 ft 273 kts 92°
2026-05-06 04:10 36.00776 -115.18237 10313 ft 274 kts 91°
2026-05-06 04:11 36.00630 -115.15897 10247 ft 275 kts 91°
2026-05-06 04:11 36.00497 -115.13552 10177 ft 269 kts 91°
2026-05-06 04:11 36.00374 -115.11311 10070 ft 253 kts 91°
2026-05-06 04:11 36.00296 -115.09903 9984 ft 243 kts 91°
2026-05-06 04:12 36.00192 -115.07886 9496 ft 243 kts 90°
2026-05-06 04:12 36.00098 -115.05800 8790 ft 243 kts 89°
2026-05-06 04:12 36.00010 -115.03749 8394 ft 234 kts 91°
2026-05-06 04:12 35.99920 -115.01759 8213 ft 232 kts 90°
2026-05-06 04:13 35.99857 -114.99768 8081 ft 227 kts 90°
2026-05-06 04:13 35.99842 -114.97812 7474 ft 229 kts 90°
2026-05-06 04:13 35.99840 -114.95854 7014 ft 225 kts 91°
2026-05-06 04:13 35.99845 -114.93953 6802 ft 220 kts 86°
2026-05-06 04:14 36.00355 -114.92184 6716 ft 224 kts 49°
2026-05-06 04:14 36.01540 -114.91027 7151 ft 200 kts 30°
2026-05-06 04:14 36.02654 -114.90181 7652 ft 188 kts 28°
2026-05-06 04:14 36.03832 -114.89815 8053 ft 173 kts 349°
2026-05-06 04:15 36.04912 -114.90379 8087 ft 161 kts 330°
2026-05-06 04:15 36.05884 -114.91062 7649 ft 161 kts 329°
2026-05-06 04:15 36.06828 -114.91744 7274 ft 154 kts 324°
2026-05-06 04:15 36.07484 -114.92765 6676 ft 157 kts 282°
2026-05-06 04:16 36.07549 -114.94119 6149 ft 160 kts 266°
2026-05-06 04:16 36.07513 -114.95506 5595 ft 162 kts 265°
2026-05-06 04:16 36.07478 -114.96906 5008 ft 164 kts 264°
2026-05-06 04:16 36.07420 -114.98334 4421 ft 168 kts 264°
2026-05-06 04:17 36.07373 -114.99747 4095 ft 163 kts 264°
2026-05-06 04:17 36.07335 -115.01147 3950 ft 164 kts 266°
2026-05-06 04:17 36.07293 -115.02556 3806 ft 166 kts 268°
2026-05-06 04:17 36.07276 -115.04004 3469 ft 169 kts 269°
2026-05-06 04:18 36.07276 -115.05426 3214 ft 166 kts 269°
2026-05-06 04:18 36.07280 -115.06868 3118 ft 168 kts 269°
2026-05-06 04:18 36.07351 -115.08257 2916 ft 158 kts 271°
2026-05-06 04:18 36.07375 -115.09567 2716 ft 146 kts 265°
2026-05-06 04:19 36.07382 -115.10786 2443 ft 140 kts 265°
2026-05-06 04:19 36.07376 -115.11960 2305 ft 133 kts 264°
2026-05-06 04:19 36.07370 -115.13069 2134 ft 123 kts 266°
2026-05-06 04:19 36.07357 -115.14003 2125 ft 88 kts 270°
2026-05-06 04:20 36.07363 -115.14585 2126 ft 49 kts 271°
2026-05-06 04:20 36.07427 -115.14954 2124 ft 42 kts 297°
2026-05-06 04:20 36.07468 -115.15043 2122 ft 0 kts 302°
2026-05-06 04:21 36.07471 -115.15047 2124 ft 3 kts 302°
2026-05-06 04:21 36.07492 -115.15085 2122 ft 6 kts 308°
2026-05-06 04:21 36.07537 -115.15135 2126 ft 12 kts 326°
2026-05-06 04:21 36.07628 -115.15192 2126 ft 17 kts 335°
2026-05-06 04:22 36.07742 -115.15256 2127 ft 19 kts 336°
2026-05-06 04:22 36.07866 -115.15327 2129 ft 20 kts 334°
2026-05-06 04:22 36.07999 -115.15405 2127 ft 22 kts 335°
2026-05-06 04:23 36.08104 -115.15254 2125 ft 19 kts 117°
2026-05-06 04:23 36.08115 -115.15110 2122 ft 17 kts 53°
2026-05-06 04:23 36.08147 -115.15067 2123 ft 0 kts 45°
2026-05-06 04:23 36.08148 -115.15065 2120 ft 2 kts 45°
2026-05-06 04:24 36.08181 -115.15024 2120 ft 4 kts 37°
2026-05-06 04:24 36.08185 -115.15025 2120 ft 0 kts
2026-05-06 04:24 36.08188 -115.15029 2119 ft 3 kts 316°
2026-05-06 04:24 36.08214 -115.15051 2119 ft 2 kts 338°
2026-05-06 04:25 36.08228 -115.15055 2119 ft 2 kts 341°
2026-05-06 04:25 36.08233 -115.15057 2120 ft 0 kts 340°
2026-05-06 04:25 36.08235 -115.15059 2118 ft 1 kts 340°
2026-05-06 04:25 36.08236 -115.15059 2118 ft 0 kts 340°